Date String (YYYY-MM-DD hh:mm:ss) UTC,Instrument flags,Ambient pressure (hPa),Sample flow (lpm),Bypass flow (lpm),Sample temperature (°C),Ambient temperature (°C),ASC tube jacket temperature (°C),LED temperature (°C),Box temperature (°C),Sample RH (%),Span deviation,Mass concentration (μg/m³),Mass concentration (μg/m³),Mass concentration (μg/m³)
DateTimeUTC,F1_M11,P_M11,Q1_M11,Q2_M11,T1_M11,T2_M11,T3_M11,T4_M11,T5_M11,U1_M11,ZSPAN_M11,X0_M11,X2_M11,X1_M11
2021-12-10 05:00:00,,0811.0,4.99,0.00,25.1,24.1,00.0,34.1,26.8,13.0,0000.0,0015.14,0004.77,0003.30
2021-12-10 05:01:00,,0810.9,5.01,0.00,25.1,24.1,00.0,34.1,26.9,13.0,0000.0,0016.68,0004.78,0003.31
2021-12-10 05:02:00,,0810.9,5.00,0.00,25.1,24.1,00.0,34.1,26.8,13.0,0000.0,0016.43,0004.82,0003.33
2021-12-10 05:03:00,,0810.9,5.00,0.00,25.0,24.1,00.0,34.1,26.8,13.1,0000.0,0016.06,0004.84,0003.34
2021-12-10 05:04:00,,0810.8,4.99,0.00,25.0,24.1,00.0,34.1,26.8,13.1,0000.0,0017.26,0004.88,0003.34
2021-12-10 05:05:00,,0810.9,4.99,0.00,25.0,24.1,00.0,34.1,26.8,13.1,0000.0,0017.65,0004.95,0003.35
2021-12-10 05:06:00,,0810.9,5.01,0.00,25.0,24.1,00.0,34.1,26.8,13.1,0000.0,0018.41,0005.00,0003.35
2021-12-10 05:07:00,,0810.9,5.00,0.00,25.0,24.1,00.0,34.1,26.8,13.1,0000.0,0018.82,0005.05,0003.36
2021-12-10 05:08:00,,0810.9,5.00,0.00,25.0,24.1,00.0,34.0,26.8,13.1,0000.0,0019.35,0005.09,0003.37
2021-12-10 05:09:00,,0810.9,5.00,0.00,25.0,24.1,00.0,34.0,26.8,13.1,0000.0,0020.01,0005.11,0003.37
2021-12-10 05:10:00,,0810.9,5.00,0.00,25.0,24.1,00.0,34.0,26.8,13.1,0000.0,0021.03,0005.10,0003.37
2021-12-10 05:11:00,,0810.9,4.99,0.00,25.0,24.1,00.0,34.0,26.8,13.1,0000.0,0021.22,0005.07,0003.38
2021-12-10 05:12:00,,0810.9,5.00,0.00,25.0,24.1,00.0,34.0,26.8,13.2,0000.0,0020.72,0005.09,0003.39
2021-12-10 05:13:00,,0810.9,5.01,0.00,25.0,24.0,00.0,34.0,26.8,13.2,0000.0,0019.34,0005.12,0003.41
2021-12-10 05:14:00,,0810.9,4.99,0.00,25.0,24.1,00.0,34.0,26.8,13.3,0000.0,0019.95,0005.12,0003.42
2021-12-10 05:15:00,,0810.9,5.01,0.00,25.0,24.1,00.0,34.0,26.8,13.3,0000.0,0018.84,0005.09,0003.44
2021-12-10 05:16:00,,0810.9,4.98,0.00,25.0,24.0,00.0,34.0,26.8,13.3,0000.0,0018.70,0005.05,0003.45
2021-12-10 05:17:00,,0810.8,5.01,0.00,24.9,24.0,00.0,34.0,26.7,13.3,0000.0,0018.44,0005.04,0003.47
2021-12-10 05:18:00,,0810.8,4.98,0.00,24.9,24.0,00.0,34.0,26.7,13.3,0000.0,0017.72,0004.97,0003.47
2021-12-10 05:19:00,,0810.7,5.01,0.00,24.9,24.0,00.0,34.0,26.7,13.3,0000.0,0017.63,0004.99,0003.49
2021-12-10 05:20:00,,0810.7,5.00,0.00,24.9,24.0,00.0,33.9,26.7,13.3,0000.0,0016.92,0005.02,0003.51
2021-12-10 05:21:00,,0810.7,5.00,0.00,24.9,24.0,00.0,33.9,26.7,13.4,0000.0,0015.84,0005.05,0003.53
2021-12-10 05:22:00,,0810.7,5.00,0.00,24.9,24.0,00.0,33.9,26.7,13.4,0000.0,0015.94,0005.08,0003.55
2021-12-10 05:23:00,,0810.7,5.00,0.00,24.9,24.0,00.0,33.9,26.7,13.4,0000.0,0016.92,0005.09,0003.57
2021-12-10 05:24:00,,0810.7,5.01,0.00,24.9,24.0,00.0,33.9,26.7,13.4,0000.0,0017.97,0005.13,0003.57
2021-12-10 05:25:00,,0810.7,4.99,0.00,24.9,24.0,00.0,33.9,26.7,13.4,0000.0,0018.95,0005.23,0003.59
2021-12-10 05:26:00,,0810.7,5.00,0.00,24.9,24.0,00.0,33.9,26.7,13.4,0000.0,0019.00,0005.30,0003.60
2021-12-10 05:27:00,,0810.7,4.99,0.00,24.9,24.0,00.0,33.9,26.7,13.4,0000.0,0018.56,0005.31,0003.60
2021-12-10 05:28:00,,0810.7,5.00,0.00,24.9,24.0,00.0,33.9,26.7,13.4,0000.0,0018.31,0005.39,0003.63
2021-12-10 05:29:00,,0810.6,5.01,0.00,24.9,24.0,00.0,33.9,26.6,13.4,0000.0,0019.36,0005.49,0003.64
2021-12-10 05:30:00,,0810.6,4.98,0.00,24.9,24.0,00.0,33.9,26.6,13.4,0000.0,0020.54,0005.48,0003.64
2021-12-10 05:31:00,,0810.6,5.01,0.00,24.8,23.9,00.0,33.9,26.6,13.4,0000.0,0020.49,0005.50,0003.63
2021-12-10 05:32:00,,0810.6,4.99,0.00,24.8,23.9,00.0,33.8,26.6,13.3,0000.0,0020.21,0005.52,0003.63
2021-12-10 05:33:00,,0810.6,5.00,0.00,24.8,23.9,00.0,33.8,26.6,13.3,0000.0,0019.31,0005.50,0003.62
2021-12-10 05:34:00,,0810.6,5.00,0.00,24.8,23.9,00.0,33.8,26.6,13.3,0000.0,0019.45,0005.50,0003.60
2021-12-10 05:35:00,,0810.6,5.00,0.00,24.8,23.9,00.0,33.8,26.6,13.3,0000.0,0018.96,0005.45,0003.60
2021-12-10 05:36:00,,0810.5,5.00,0.00,24.8,23.9,00.0,33.8,26.6,13.3,0000.0,0017.73,0005.35,0003.58
2021-12-10 05:37:00,,0810.5,4.99,0.00,24.8,23.9,00.0,33.8,26.6,13.3,0000.0,0017.48,0005.28,0003.56
2021-12-10 05:38:00,,0810.5,4.99,0.00,24.8,23.9,00.0,33.8,26.6,13.3,0000.0,0017.19,0005.23,0003.53
2021-12-10 05:39:00,,0810.5,5.01,0.00,24.8,23.9,00.0,33.8,26.6,13.3,0000.0,0017.54,0005.14,0003.50
2021-12-10 05:40:00,,0810.5,4.99,0.00,24.8,23.9,00.0,33.8,26.6,13.3,0000.0,0016.93,0005.01,0003.47
2021-12-10 05:41:00,,0810.4,4.99,0.00,24.8,23.9,00.0,33.8,26.6,13.3,0000.0,0016.18,0004.93,0003.45
2021-12-10 05:42:00,,0810.4,5.01,0.00,24.8,23.9,00.0,33.8,26.6,13.2,0000.0,0015.79,0004.86,0003.43
2021-12-10 05:43:00,,0810.4,4.99,0.00,24.8,23.9,00.0,33.8,26.6,13.2,0000.0,0015.78,0004.77,0003.39
2021-12-10 05:44:00,,0810.3,5.00,0.00,24.8,23.9,00.0,33.8,26.6,13.2,0000.0,0016.85,0004.77,0003.37
2021-12-10 05:45:00,,0810.3,5.00,0.00,24.8,23.9,00.0,33.8,26.6,13.2,0000.0,0016.74,0004.73,0003.35
2021-12-10 05:46:00,,0810.3,4.99,0.00,24.8,23.9,00.0,33.8,26.6,13.2,0000.0,0015.90,0004.67,0003.34
2021-12-10 05:47:00,,0810.3,5.01,0.00,24.8,23.9,00.0,33.8,26.6,13.2,0000.0,0015.82,0004.68,0003.32
2021-12-10 05:48:00,,0810.3,5.01,0.00,24.8,23.9,00.0,33.8,26.6,13.2,0000.0,0015.59,0004.70,0003.32
2021-12-10 05:49:00,,0810.3,4.99,0.00,24.8,23.9,00.0,33.8,26.6,13.2,0000.0,0015.81,0004.70,0003.34
2021-12-10 05:50:00,,0810.3,4.99,0.00,24.8,23.9,00.0,33.7,26.6,13.2,0000.0,0015.96,0004.72,0003.34
2021-12-10 05:51:00,,0810.4,5.01,0.00,24.8,23.8,00.0,33.7,26.6,13.2,0000.0,0016.03,0004.72,0003.35
2021-12-10 05:52:00,,0810.3,5.00,0.00,24.7,23.8,00.0,33.7,26.6,13.2,0000.0,0015.82,0004.76,0003.34
2021-12-10 05:53:00,,0810.3,5.00,0.00,24.7,23.8,00.0,33.7,26.5,13.2,0000.0,0016.09,0004.74,0003.35
2021-12-10 05:54:00,,0810.3,4.99,0.00,24.7,23.8,00.0,33.7,26.5,13.2,0000.0,0016.51,0004.73,0003.35
2021-12-10 05:55:00,,0810.3,5.00,0.00,24.7,23.8,00.0,33.7,26.5,13.2,0000.0,0016.26,0004.71,0003.34
2021-12-10 05:56:00,,0810.3,5.01,0.00,24.7,23.8,00.0,33.7,26.5,13.2,0000.0,0015.33,0004.64,0003.34
2021-12-10 05:57:00,,0810.3,5.00,0.00,24.7,23.8,00.0,33.7,26.5,13.2,0000.0,0015.96,0004.63,0003.33
2021-12-10 05:58:00,,0810.3,5.00,0.00,24.7,23.8,00.0,33.7,26.5,13.2,0000.0,0016.26,0004.60,0003.33
2021-12-10 05:59:00,,0810.3,5.01,0.00,24.7,23.8,00.0,33.7,26.5,13.3,0000.0,0016.11,0004.55,0003.33
